This is the latest recevied weather packets stored in our database for station/object KR4BRU. If no packets are shown the sender has not sent any weather packets the latest 10 day(s).
| Time | Temp. | Humidity | Pressure | Rain* | Wind** | Luminosity | Snow |
|---|---|---|---|---|---|---|---|
| 1777791479 | 8.89° C | 80% | 1015.6 hPa | 0 mm | - | 0 W/m² | - |
| 1777790879 | 8.89° C | 80% | 1015.5 hPa | 0 mm | - | 0 W/m² | - |
| 1777790279 | 8.89° C | 79% | 1015.5 hPa | 0 mm | - | 0 W/m² | - |
| 1777789676 | 8.89° C | 79% | 1015.3 hPa | 0 mm | - | 0 W/m² | - |
| 1777789071 | 8.89° C | 79% | 1015.5 hPa | 0 mm | - | 0 W/m² | - |
| 1777788470 | 8.89° C | 79% | 1015.5 hPa | 0 mm | - | 0 W/m² | - |
| 1777787865 | 8.89° C | 79% | 1015.5 hPa | 0 mm | - | 0 W/m² | - |
| 1777787263 | 8.89° C | 78% | 1015.5 hPa | 0 mm | - | 0 W/m² | - |
| 1777786664 | 8.89° C | 78% | 1015.5 hPa | 0 mm | - | 0 W/m² | - |
| 1777786064 | 8.89° C | 77% | 1015.6 hPa | 0 mm | - | 0 W/m² | - |
| 1777785462 | 9.44° C | 77% | 1015.4 hPa | 0 mm | - | 0 W/m² | - |
| 1777784856 | 8.89° C | 76% | 1015.3 hPa | 0 mm | - | 0 W/m² | - |
| 1777784256 | 9.44° C | 74% | 1015.2 hPa | 0 mm | - | 0 W/m² | - |
| 1777783656 | 10° C | 73% | 1015.3 hPa | 0 mm | - | 0 W/m² | - |
| 1777783050 | 10° C | 72% | 1015.1 hPa | 0 mm | - | 0 W/m² | - |
| 1777782449 | 10° C | 71% | 1014.9 hPa | 0 mm | - | 0 W/m² | - |
| 1777781847 | 10.56° C | 70% | 1014.9 hPa | 0 mm | - | 0 W/m² | - |
| 1777781243 | 11.11° C | 68% | 1014.7 hPa | 0 mm | - | 0 W/m² | - |
| 1777780643 | 11.11° C | 65% | 1014.6 hPa | 0 mm | - | 0 W/m² | - |
| 1777780044 | 12.22° C | 63% | 1014.7 hPa | 0 mm | - | 0 W/m² | - |
| 1777779438 | 12.22° C | 61% | 1014.6 hPa | 0 mm | - | 0 W/m² | - |
| 1777778834 | 12.78° C | 59% | 1014.5 hPa | 0 mm | - | 0 W/m² | - |
| 1777778228 | 12.78° C | 57% | 1014.5 hPa | 0 mm | - | 0 W/m² | - |
| 1777777628 | 13.33° C | 56% | 1014.5 hPa | 0 mm | - | 0 W/m² | - |
| 1777777027 | 13.33° C | 55% | 1014.5 hPa | 0 mm | - | 0 W/m² | - |
* Rain latest hour (hover to see other rain measurements)
** Current wind speed in m/s (hover to see current wind gust speed)